Wind_Speed
19 19 20 20 22 25 29 31 32 32 30 27 26 26 26 26 27 29 31 32 34 36 37 38 39 41 43 43 44 46 48 49 52 55 56 57 58 58 58 59 59 59 60
18 19 21 24 27 31 33 33 31 28 25 24 25 26 27 29 30 31 33 35 37 40 41 43 44 45 47 48 49 51 52 53 55 57 60 61 61 60 62 63 62 62 62
18 21 25 29 32 34 34 32 29 28 27 27 27 28 30 31 34 36 39 41 44 46 48 49 50 52 53 54 54 56 58 59 59 61 64 67 67 65 63 63 64 64 63
22 25 29 32 33 32 30 29 29 29 29 30 31 33 35 37 39 41 43 46 47 49 51 52 54 56 57 59 60 61 62 64 64 65 67 69 72 74 72 65 63 64 63
26 28 29 29 28 27 27 28 29 30 32 33 35 37 38 40 42 43 45 48 50 52 54 56 58 60 62 64 66 67 69 70 71 71 72 73 73 73 74 72 64 61 60
28 28 26 25 25 26 27 28 29 31 32 34 36 38 40 43 45 47 50 52 54 56 58 60 62 63 65 66 67 68 69 70 71 71 71 71 70 67 66 67 65 63 60
26 26 25 24 25 26 27 29 30 32 34 36 39 41 44 46 49 51 53 55 56 58 59 61 63 65 65 66 66 67 67 68 69 70 71 71 69 67 65 65 66 66 65
25 23 23 24 25 26 29 31 34 36 38 40 42 44 47 49 51 53 55 57 59 61 63 65 66 68 70 71 72 72 73 73 74 75 76 77 77 76 74 71 71 71 70
23 23 23 25 27 30 32 34 36 39 40 42 44 46 49 51 54 56 59 61 63 66 68 70 71 72 74 75 76 78 78 79 80 81 81 80 80 79 79 77 75 74 75
23 24 27 29 32 34 35 36 38 40 42 45 47 50 53 56 58 59 61 64 67 70 73 75 76 78 80 81 82 83 83 84 85 85 84 83 80 79 78 76 75 74 73
26 28 30 33 35 36 38 39 41 44 48 52 56 58 60 62 64 67 70 73 75 78 80 82 83 84 85 86 87 88 89 89 88 86 84 82 81 80 79 78 77 75 73
27 30 32 34 36 38 41 44 48 52 55 59 62 64 66 69 72 75 78 81 83 86 88 89 90 91 90 90 89 89 90 90 89 86 84 81 79 79 78 78 77 74 72
31 33 34 36 39 43 47 50 54 57 61 63 66 69 72 75 78 81 85 88 90 93 95 96 95 94 92 91 90 89 89 87 85 83 81 79 77 76 75 76 75 75 73
33 34 37 40 45 49 53 57 61 64 67 69 72 75 78 81 84 87 90 93 96 98 98 97 95 92 90 88 87 86 84 81 79 78 77 75 74 74 74 74 74 74 74
35 38 42 46 50 55 59 63 66 69 72 74 77 79 82 86 89 91 94 96 97 97 96 94 91 87 83 80 78 77 76 75 74 73 72 71 72 72 73 74 73 73 72
39 43 47 52 56 61 64 68 71 73 76 78 81 84 87 90 92 93 93 93 92 90 87 84 81 77 74 73 73 73 72 72 72 72 71 71 70 70 71 71 71 71 70
45 49 54 58 62 65 68 71 74 76 79 82 86 90 92 92 91 90 88 85 82 78 75 73 72 70 69 69 70 71 72 73 74 74 74 73 72 73 73 72 70 69 69
52 55 59 62 65 68 71 73 75 78 82 87 91 93 92 89 86 82 78 75 72 69 68 67 68 68 69 72 74 76 78 79 80 81 81 79 77 77 78 76 73 71 70
56 59 63 65 68 70 73 76 79 82 87 90 91 89 86 82 77 72 69 68 66 66 67 69 71 73 75 78 81 84 85 85 85 84 82 81 78 76 76 75 73 71 69
60 63 65 68 70 73 76 79 83 86 88 88 86 82 78 74 70 67 66 66 67 69 72 74 78 81 83 85 87 89 89 88 85 82 78 75 72 70 69 68 67 65 62
64 66 68 70 73 76 80 84 87 88 86 83 79 74 71 69 67 66 67 70 72 75 78 81 84 87 89 90 90 90 88 86 82 77 71 66 63 61 59 57 55 54 52
66 68 70 74 77 82 85 88 87 84 80 75 72 69 67 68 68 70 72 76 80 83 86 89 91 91 91 91 89 86 83 80 75 69 63 58 53 50 47 45 44 43 42
69 71 74 78 83 86 87 87 84 78 73 69 68 67 67 69 72 75 78 82 87 91 94 96 95 92 88 84 81 77 72 67 62 57 53 49 44 40 37 35 34 34 35
71 74 78 83 86 87 87 84 79 72 68 66 66 68 70 72 76 80 85 89 93 96 96 93 89 84 77 71 67 62 56 51 46 43 42 41 38 33 29 27 26 27 28
73 77 82 85 86 85 82 77 72 68 66 66 68 70 74 78 82 86 89 92 92 90 86 81 75 69 62 56 52 49 43 38 34 32 32 32 31 28 23 20 20 21 22
77 81 84 85 84 80 74 70 67 66 67 69 72 76 81 85 88 89 87 83 78 72 67 64 60 56 51 47 44 40 35 32 31 30 28 27 26 22 18 16 15 16 17
Wind_Direction
257 254 255 263 272 278 283 285 287 287 286 285 286 288 289 289 287 285 286 287 289 290 291 292 293 293 293 292 291 289 288 287 286 286 286 287 289 290 290 289 289 289 288
255 256 265 276 282 286 288 287 285 283 282 283 284 287 290 291 292 294 296 297 297 297 297 298 298 298 297 296 295 293 291 289 287 287 286 286 286 288 287 287 287 287 287
257 264 273 280 284 286 286 286 287 287 287 288 290 293 296 299 300 301 301 301 301 302 302 301 300 299 298 296 294 292 290 289 287 287 287 287 287 286 286 286 287 288 288
264 271 276 280 282 283 285 287 289 290 292 294 296 298 300 301 302 301 302 302 302 301 300 298 297 296 294 293 291 290 289 289 288 287 287 288 288 288 287 286 287 287 287
270 274 277 280 281 283 286 289 292 294 297 298 299 300 301 301 301 300 300 299 298 296 295 294 292 291 291 290 290 289 289 289 289 289 289 288 288 288 288 287 285 284 285
270 272 275 279 282 284 288 291 295 298 299 299 300 300 300 299 298 297 296 295 294 293 293 292 291 291 290 290 289 289 290 290 290 290 290 290 289 288 287 286 285 283 283
267 269 275 282 287 291 294 295 295 294 295 296 297 297 297 297 297 297 298 298 298 297 297 296 296 295 294 292 291 290 290 289 289 289 289 288 287 286 284 283 282 281 280
270 278 287 290 292 292 292 291 292 293 294 295 296 297 298 299 300 301 302 301 301 300 300 298 297 296 295 293 292 290 289 289 288 288 287 286 286 285 284 283 282 280 277
283 288 287 286 287 287 288 290 291 293 294 297 299 301 302 302 303 303 303 303 302 301 301 299 298 296 295 293 292 291 290 289 288 287 286 286 286 286 285 285 285 284 281
285 285 286 287 288 289 290 291 292 295 298 300 301 302 302 302 302 302 302 302 301 300 300 299 298 297 296 295 293 291 290 288 288 287 288 287 287 286 286 286 286 285 285
284 286 287 288 290 292 294 295 297 299 301 302 302 302 302 302 302 301 301 300 299 298 298 297 296 295 293 292 291 290 288 286 285 285 286 287 287 287 287 286 286 285 285
284 285 288 292 295 297 298 299 300 300 301 301 302 302 301 301 300 300 299 298 298 297 297 296 295 293 291 289 288 286 285 284 284 284 285 285 285 286 286 286 286 285 284
291 295 296 297 297 298 299 300 301 301 301 302 302 301 301 301 300 299 299 298 297 297 297 296 295 293 290 289 287 286 285 285 285 285 285 285 285 284 284 284 284 284 283
298 299 299 298 299 300 302 303 303 303 303 302 302 302 302 301 300 299 298 298 297 297 296 296 295 293 291 290 290 289 289 289 289 289 288 288 286 285 284 284 283 283 283
302 302 302 302 303 303 303 304 303 303 303 302 302 302 302 301 301 300 299 298 298 297 297 296 295 295 295 295 294 294 293 293 292 291 291 290 289 288 287 286 285 283 283
305 305 305 305 304 304 303 303 302 302 302 302 302 302 302 302 302 301 300 298 298 297 297 297 297 297 297 296 295 294 294 293 291 290 289 288 287 286 285 285 285 284 284
305 306 306 305 304 303 302 302 302 302 303 303 303 304 304 303 302 300 299 298 298 299 299 300 299 299 299 298 297 296 295 294 293 292 290 288 287 285 284 283 283 283 283
305 305 305 304 303 303 302 303 303 304 305 305 306 306 305 303 301 299 298 299 300 301 301 301 300 300 299 299 298 297 297 296 296 295 293 291 288 286 284 283 282 281 281
305 305 305 304 304 304 305 305 306 307 308 308 307 306 304 301 299 299 300 301 302 302 302 302 301 301 300 300 299 299 298 297 296 295 294 292 289 287 285 283 281 280 279
304 304 305 305 306 307 307 308 309 309 309 308 307 304 302 300 299 299 300 301 303 303 303 302 302 301 301 301 300 299 299 299 298 297 295 294 291 287 284 282 281 279 277
305 306 307 308 309 309 310 310 311 311 310 308 305 303 301 300 299 299 301 302 303 303 303 302 302 302 301 301 300 299 299 299 299 298 297 294 290 286 283 281 280 279 277
308 309 310 310 311 311 311 312 312 311 309 307 305 303 302 301 301 302 304 305 305 305 304 303 302 301 301 300 300 300 300 300 300 299 298 295 291 286 282 279 276 274 274
310 310 311 311 311 312 313 313 312 311 309 307 306 305 304 304 305 306 306 306 306 306 305 304 303 303 302 301 300 300 300 300 300 300 298 296 291 285 279 273 269 267 268
310 310 311 312 313 314 313 312 311 310 309 308 307 307 307 307 308 308 308 308 307 306 306 305 305 304 304 303 301 299 298 298 299 298 298 296 292 286 276 264 257 259 265
309 311 313 314 314 314 313 312 311 310 309 309 309 310 310 310 309 308 308 308 308 309 309 309 309 309 308 306 303 302 302 302 300 298 298 296 291 283 269 252 247 256 266
311 313 314 314 314 313 312 311 311 311 311 311 312 312 311 310 309 308 308 310 311 312 313 313 313 313 313 311 309 308 309 308 306 307 306 299 290 276 254 239 246 261 272
Height
5819 5819 5820 5820 5820 5820 5818 5817 5815 5812 5809 5806 5803 5800 5798 5796 5794 5791 5789 5786 5784 5781 5779 5776 5773 5769 5766 5763 5759 5755 5751 5747 5742 5737 5734 5730 5726 5722 5718 5712 5707 5703 5698
5815 5815 5815 5815 5813 5812 5810 5809 5807 5805 5803 5800 5797 5795 5792 5789 5787 5785 5782 5779 5776 5773 5770 5767 5764 5760 5757 5753 5749 5744 5740 5737 5731 5726 5721 5718 5717 5711 5704 5699 5694 5689 5685
5810 5811 5810 5808 5807 5805 5802 5800 5798 5796 5795 5793 5791 5789 5786 5783 5780 5777 5774 5770 5767 5764 5760 5757 5753 5749 5745 5741 5736 5731 5726 5722 5718 5712 5705 5701 5699 5697 5693 5686 5681 5676 5672
5805 5805 5804 5802 5800 5798 5796 5794 5791 5789 5787 5785 5783 5781 5778 5775 5772 5768 5765 5761 5757 5753 5749 5745 5741 5736 5731 5727 5722 5716 5711 5706 5703 5697 5691 5685 5680 5674 5673 5673 5667 5661 5657
5800 5799 5797 5796 5794 5792 5790 5788 5785 5783 5780 5778 5775 5773 5769 5766 5763 5759 5755 5751 5747 5742 5737 5733 5728 5722 5717 5712 5706 5701 5696 5690 5686 5681 5675 5668 5662 5657 5651 5650 5652 5647 5642
5793 5792 5791 5790 5788 5786 5784 5782 5779 5776 5773 5770 5767 5764 5760 5756 5752 5748 5744 5739 5734 5729 5724 5719 5714 5708 5703 5697 5691 5685 5679 5674 5668 5663 5657 5650 5645 5641 5634 5630 5629 5628 5628
5786 5785 5784 5783 5782 5780 5778 5775 5771 5768 5765 5761 5758 5754 5749 5745 5740 5736 5731 5726 5721 5715 5710 5704 5699 5693 5687 5681 5675 5669 5663 5657 5651 5646 5639 5633 5628 5624 5618 5613 5609 5606 5606
5780 5779 5778 5776 5775 5773 5770 5766 5762 5758 5755 5751 5747 5743 5738 5733 5728 5723 5718 5712 5707 5701 5696 5690 5684 5677 5670 5664 5658 5652 5646 5640 5634 5628 5622 5616 5611 5606 5601 5595 5590 5586 5585
5774 5772 5770 5769 5767 5764 5761 5757 5753 5749 5745 5741 5736 5732 5727 5722 5717 5711 5704 5698 5692 5686 5679 5673 5666 5659 5652 5644 5637 5631 5625 5619 5613 5607 5601 5596 5592 5587 5582 5576 5570 5564 5560
5766 5764 5763 5761 5758 5755 5752 5748 5744 5740 5736 5732 5727 5722 5716 5710 5704 5698 5691 5684 5677 5670 5662 5655 5647 5639 5632 5624 5616 5610 5603 5595 5589 5583 5578 5574 5569 5565 5560 5554 5549 5544 5538
5759 5757 5755 5752 5750 5746 5743 5739 5735 5732 5727 5721 5716 5710 5703 5696 5690 5683 5676 5668 5660 5652 5644 5635 5627 5619 5610 5602 5594 5586 5579 5572 5567 5562 5556 5552 5548 5543 5538 5533 5528 5524 5518
5752 5750 5748 5745 5741 5737 5734 5730 5726 5721 5715 5709 5702 5696 5689 5681 5674 5666 5658 5650 5641 5632 5623 5614 5606 5597 5587 5578 5569 5561 5554 5548 5543 5539 5534 5530 5525 5521 5516 5511 5507 5503 5499
5744 5742 5740 5736 5732 5728 5723 5719 5713 5707 5701 5694 5686 5679 5671 5664 5656 5647 5638 5629 5620 5611 5601 5591 5581 5571 5562 5553 5543 5535 5529 5524 5519 5515 5510 5506 5501 5497 5493 5488 5485 5482 5479
5736 5734 5730 5726 5722 5716 5711 5705 5698 5692 5684 5677 5669 5662 5654 5645 5637 5627 5617 5607 5596 5586 5576 5565 5555 5545 5536 5527 5517 5510 5506 5502 5497 5491 5486 5482 5476 5472 5468 5465 5464 5460 5458
5726 5722 5719 5714 5709 5703 5697 5690 5682 5675 5667 5660 5652 5644 5635 5625 5615 5605 5593 5582 5571 5560 5549 5540 5531 5521 5512 5504 5495 5489 5485 5480 5475 5470 5465 5460 5454 5448 5443 5441 5440 5438 5436
5715 5711 5706 5701 5696 5689 5682 5674 5667 5659 5651 5642 5633 5624 5614 5603 5592 5580 5568 5557 5546 5536 5525 5516 5508 5501 5492 5484 5476 5469 5465 5460 5454 5449 5445 5440 5434 5428 5423 5418 5416 5414 5411
5703 5698 5693 5687 5681 5674 5666 5659 5651 5643 5634 5624 5613 5602 5592 5580 5568 5555 5543 5533 5523 5515 5506 5497 5489 5482 5474 5465 5458 5450 5443 5437 5431 5425 5420 5416 5412 5405 5400 5398 5397 5395 5391
5691 5685 5679 5673 5666 5659 5651 5642 5634 5625 5615 5603 5591 5580 5568 5556 5544 5532 5522 5512 5504 5496 5488 5480 5471 5464 5456 5446 5438 5429 5422 5415 5408 5401 5394 5389 5386 5380 5373 5372 5374 5374 5373
5678 5672 5665 5658 5650 5642 5633 5624 5615 5605 5594 5581 5568 5556 5544 5533 5522 5512 5503 5495 5487 5479 5471 5462 5453 5445 5437 5427 5416 5405 5398 5391 5384 5376 5369 5363 5359 5355 5347 5345 5346 5349 5350
5665 5658 5650 5641 5633 5624 5615 5606 5596 5585 5573 5559 5546 5534 5522 5512 5503 5495 5486 5477 5469 5461 5452 5444 5434 5424 5415 5404 5392 5380 5371 5364 5357 5350 5344 5338 5332 5328 5323 5320 5321 5323 5325
5649 5641 5632 5624 5615 5607 5597 5587 5576 5564 5551 5538 5526 5514 5504 5494 5486 5478 5468 5459 5450 5442 5434 5425 5415 5403 5391 5379 5367 5355 5345 5337 5330 5325 5321 5315 5310 5305 5302 5300 5300 5302 5304
5633 5624 5615 5607 5598 5590 5579 5567 5555 5543 5530 5519 5508 5497 5488 5477 5468 5460 5450 5440 5429 5420 5410 5399 5389 5379 5367 5353 5341 5330 5321 5313 5306 5302 5298 5293 5290 5287 5285 5285 5285 5287 5289
5615 5606 5598 5589 5579 5568 5556 5544 5532 5521 5510 5500 5490 5481 5472 5462 5451 5441 5431 5421 5409 5395 5383 5371 5359 5350 5340 5328 5316 5307 5300 5294 5288 5284 5279 5275 5273 5272 5272 5273 5274 5276 5278
5598 5590 5581 5571 5559 5546 5534 5523 5512 5502 5492 5484 5475 5466 5456 5447 5436 5424 5411 5398 5385 5370 5356 5343 5332 5323 5314 5304 5295 5289 5284 5281 5277 5273 5268 5264 5261 5261 5261 5263 5265 5268 5271
5583 5573 5562 5551 5539 5527 5514 5503 5494 5485 5477 5469 5460 5450 5439 5428 5417 5405 5391 5376 5363 5344 5329 5318 5308 5299 5293 5286 5278 5273 5271 5269 5266 5263 5260 5256 5253 5252 5253 5256 5259 5263 5265
5566 5555 5544 5533 5521 5509 5498 5488 5479 5471 5462 5453 5444 5433 5421 5408 5395 5382 5372 5360 5343 5329 5315 5303 5294 5286 5279 5273 5269 5264 5262 5259 5256 5253 5251 5248 5245 5245 5247 5251 5255 5258 5260